TimePST,TemperatureF,Dew PointF,Humidity,Sea Level PressureIn,VisibilityMPH,Wind Direction,Wind SpeedMPH,Gust SpeedMPH,PrecipitationIn,Events,Conditions,WindDirDegrees,DateUTC
12:00 AM,60.8,50.0,68,30.02,9.0,SSW,25.3,36.8,N/A,,Clear,200,2012-11-05 08:00:00
1:00 AM,60,47,53,30.01,9,South,21.9,,,,,190,2012-11-05 09:00:00
1:00 AM,59.0,48.2,67,30.01,9.0,South,20.7,33.4,N/A,,Clear,190,2012-11-05 09:00:00
2:00 AM,60.8,41.0,48,30.03,9.0,SSW,17.3,32.2,N/A,,Clear,210,2012-11-05 10:00:00
3:00 AM,60.8,39.2,45,30.05,9.0,SSW,20.7,28.8,N/A,,Clear,200,2012-11-05 11:00:00
4:00 AM,60,38,32,30.09,9,SSW,20.7,,,,,210,2012-11-05 12:00:00
4:00 AM,59.0,37.4,45,30.09,9.0,SSW,21.9,31.1,N/A,,Clear,210,2012-11-05 12:00:00
5:00 AM,57.2,37.4,48,30.13,9.0,SSW,19.6,34.5,N/A,,Clear,210,2012-11-05 13:00:00
6:00 AM,55.4,37.4,51,30.18,9.0,SW,18.4,34.5,N/A,,Clear,220,2012-11-05 14:00:00
7:00 AM,53,37,43,30.23,9,SSW,19.6,,,,,210,2012-11-05 15:00:00
7:00 AM,53.6,37.4,54,30.23,9.0,SSW,18.4,35.7,N/A,,Clear,200,2012-11-05 15:00:00
8:00 AM,51.8,37.4,58,30.26,9.0,SSW,18.4,34.5,N/A,,Clear,200,2012-11-05 16:00:00
9:00 AM,53.6,37.4,54,30.26,9.0,SSW,18.4,33.4,N/A,,Clear,200,2012-11-05 17:00:00
10:00 AM,55,37,39,30.27,9,South,18.4,,,,,190,2012-11-05 18:00:00
10:00 AM,55.4,37.4,51,30.27,9.0,South,20.7,28.8,N/A,,Clear,190,2012-11-05 18:00:00
11:00 AM,55.4,39.2,54,30.27,9.0,South,24.2,32.2,N/A,,Clear,180,2012-11-05 19:00:00
12:00 PM,57.2,39.2,51,30.26,9.0,South,20.7,36.8,N/A,,Clear,190,2012-11-05 20:00:00
1:00 PM,56,39,42,30.26,9,South,21.9,,,,,190,2012-11-05 21:00:00
1:00 PM,57.2,39.2,51,30.26,9.0,South,21.9,34.5,N/A,,Clear,190,2012-11-05 21:00:00
2:00 PM,55.4,39.2,54,30.25,9.0,South,21.9,35.7,N/A,,Clear,190,2012-11-05 22:00:00
3:00 PM,55.4,39.2,54,30.25,9.0,SSW,17.3,25.3,N/A,,Clear,200,2012-11-05 23:00:00
4:00 PM,55,40,45,30.26,9,South,15.0,,,,,190,2012-11-06 00:00:00
4:00 PM,55.4,39.2,54,30.26,9.0,South,15.0,24.2,N/A,,Clear,190,2012-11-06 00:00:00
5:00 PM,55.4,39.2,54,30.26,9.0,South,18.4,25.3,N/A,,Clear,190,2012-11-06 01:00:00
6:00 PM,53.6,39.2,58,30.26,9.0,South,17.3,25.3,N/A,,Clear,190,2012-11-06 02:00:00
7:00 PM,53,39,47,30.24,9,South,19.6,,,,,190,2012-11-06 03:00:00
7:00 PM,53.6,39.2,58,30.24,9.0,SSW,20.7,32.2,N/A,,Clear,200,2012-11-06 03:00:00
8:00 PM,51.8,39.2,62,30.23,9.0,South,18.4,27.6,N/A,,Clear,180,2012-11-06 04:00:00
9:00 PM,51.8,39.2,62,30.22,9.0,South,19.6,25.3,N/A,,Clear,180,2012-11-06 05:00:00
10:00 PM,51,39,54,30.19,9,South,12.7,,,,,170,2012-11-06 06:00:00
11:00 PM,50.0,39.2,66,30.18,9.0,SSE,9.2,20.7,N/A,,Clear,150,2012-11-06 07:00:00